Tiempo cada hora Allaman

Hoy, 28 Julio, Miércoles

Tiempo Temperatura Precipitaciones Viento Presión Humedad
00:00 +18°C° 0.2 mm 1 mps 718 mmHg 91%
01:00 +18°C° 0.4 mm 1 mps 718 mmHg 92%
02:00 +17°C° 0.4 mm 2 mps 718 mmHg 93%
03:00 +17°C° 0.4 mm 2 mps 718 mmHg 95%
04:00 +17°C° 1.5 mm 2 mps 718 mmHg 96%
05:00 +16°C° 1.5 mm 2 mps 718 mmHg 96%
06:00 +16°C° 1.5 mm 2 mps 718 mmHg 97%
07:00 +17°C° 0.3 mm 2 mps 718 mmHg 92%
08:00 +19°C° 0.3 mm 2 mps 719 mmHg 86%
09:00 +20°C° 0.3 mm 2 mps 719 mmHg 81%
10:00 +21°C° 0.1 mm 3 mps 719 mmHg 76%
11:00 +24°C° 0.1 mm 3 mps 719 mmHg 70%
12:00 +25°C° 0.1 mm 3 mps 718 mmHg 65%
13:00 +25°C° 0.2 mm 3 mps 718 mmHg 65%
14:00 +25°C° 0.2 mm 3 mps 718 mmHg 66%
15:00 +25°C° 0.2 mm 3 mps 718 mmHg 66%
16:00 +24°C° 0.1 mm 2 mps 718 mmHg 70%
17:00 +24°C° 0.1 mm 2 mps 718 mmHg 75%
18:00 +23°C° 0.1 mm 1 mps 718 mmHg 79%
19:00 +21°C° 0 mm 1 mps 718 mmHg 83%
20:00 +20°C° 0 mm 1 mps 719 mmHg 86%
21:00 +18°C° 0 mm 1 mps 719 mmHg 90%
22:00 +18°C° 0 mm 1 mps 719 mmHg 90%
23:00 +18°C° 0 mm 1 mps 719 mmHg 90%

Mañana, 29 Julio, Jueves

Tiempo Temperatura Precipitaciones Viento Presión Humedad
00:00 +18°C° 0 mm 1 mps 719 mmHg 90%
01:00 +18°C° 0 mm 1 mps 718 mmHg 90%
02:00 +16°C° 0 mm 1 mps 718 mmHg 90%
03:00 +16°C° 0 mm 1 mps 718 mmHg 90%
04:00 +16°C° 0 mm 0 mps 718 mmHg 88%
05:00 +17°C° 0 mm 0 mps 718 mmHg 86%
06:00 +18°C° 0 mm 0 mps 719 mmHg 84%
07:00 +22°C° 0 mm 1 mps 719 mmHg 78%
08:00 +23°C° 0 mm 1 mps 719 mmHg 73%
09:00 +25°C° 0 mm 1 mps 719 mmHg 67%
10:00 +26°C° 0.1 mm 2 mps 718 mmHg 64%
11:00 +27°C° 0.1 mm 2 mps 718 mmHg 60%
12:00 +28°C° 0.1 mm 2 mps 718 mmHg 57%
13:00 +28°C° 0 mm 2 mps 717 mmHg 57%
14:00 +29°C° 0 mm 2 mps 717 mmHg 56%
15:00 +29°C° 0 mm 2 mps 717 mmHg 56%
16:00 +27°C° 0.7 mm 2 mps 717 mmHg 67%
17:00 +25°C° 0.7 mm 1 mps 717 mmHg 77%
18:00 +23°C° 0.7 mm 1 mps 717 mmHg 88%
19:00 +22°C° 0.7 mm 1 mps 717 mmHg 90%
20:00 +21°C° 0.7 mm 1 mps 717 mmHg 93%
21:00 +19°C° 0.7 mm 1 mps 717 mmHg 95%
22:00 +19°C° 0.7 mm 1 mps 717 mmHg 95%
23:00 +19°C° 0.7 mm 1 mps 717 mmHg 95%

Pasado mañana, 30 Julio, Viernes

Tiempo Temperatura Precipitaciones Viento Presión Humedad
00:00 +18°C° 0.7 mm 1 mps 717 mmHg 96%
01:00 +18°C° 0.2 mm 1 mps 717 mmHg 95%
02:00 +18°C° 0.2 mm 1 mps 717 mmHg 95%
03:00 +16°C° 0.2 mm 0 mps 717 mmHg 94%
04:00 +17°C° 0.1 mm 0 mps 717 mmHg 94%
05:00 +17°C° 0.1 mm 0 mps 717 mmHg 93%
06:00 +18°C° 0.1 mm 0 mps 717 mmHg 93%
07:00 +20°C° 0 mm 0 mps 717 mmHg 86%
08:00 +23°C° 0 mm 1 mps 717 mmHg 79%
09:00 +25°C° 0 mm 1 mps 717 mmHg 72%
10:00 +26°C° 0 mm 1 mps 716 mmHg 68%
11:00 +27°C° 0 mm 2 mps 716 mmHg 63%
12:00 +29°C° 0 mm 2 mps 716 mmHg 59%
13:00 +29°C° 0.4 mm 2 mps 715 mmHg 60%
14:00 +28°C° 0.4 mm 2 mps 715 mmHg 62%
15:00 +28°C° 0.4 mm 2 mps 715 mmHg 64%
16:00 +26°C° 1.4 mm 2 mps 715 mmHg 72%
17:00 +25°C° 1.4 mm 2 mps 715 mmHg 80%
18:00 +22°C° 1.4 mm 3 mps 715 mmHg 89%
19:00 +21°C° 1.4 mm 2 mps 716 mmHg 90%
20:00 +20°C° 1.4 mm 2 mps 716 mmHg 92%
21:00 +19°C° 1.4 mm 2 mps 717 mmHg 94%
22:00 +18°C° 0.2 mm 2 mps 717 mmHg 94%
23:00 +18°C° 0.2 mm 2 mps 717 mmHg 94%

31 Julio, Sábado

Tiempo Temperatura Precipitaciones Viento Presión Humedad
00:00 +18°C° 0.2 mm 2 mps 717 mmHg 94%
01:00 +17°C° 0.1 mm 2 mps 716 mmHg 94%
02:00 +18°C° 0.1 mm 1 mps 716 mmHg 95%
03:00 +16°C° 0.1 mm 1 mps 716 mmHg 95%
04:00 +18°C° 0 mm 1 mps 716 mmHg 95%
05:00 +18°C° 0 mm 1 mps 717 mmHg 94%
06:00 +18°C° 0 mm 1 mps 717 mmHg 93%
07:00 +19°C° 0.1 mm 1 mps 717 mmHg 87%
08:00 +20°C° 0.1 mm 1 mps 717 mmHg 81%
09:00 +21°C° 0.1 mm 1 mps 717 mmHg 75%
10:00 +22°C° 0.1 mm 1 mps 717 mmHg 71%
11:00 +23°C° 0.1 mm 1 mps 717 mmHg 68%
12:00 +23°C° 0.1 mm 1 mps 717 mmHg 64%
13:00 +23°C° 0.1 mm 2 mps 716 mmHg 63%
14:00 +24°C° 0.1 mm 2 mps 716 mmHg 62%
15:00 +24°C° 0.1 mm 2 mps 716 mmHg 62%
16:00 +23°C° 0.1 mm 2 mps 716 mmHg 67%
17:00 +21°C° 0.1 mm 2 mps 716 mmHg 73%
18:00 +20°C° 0.1 mm 2 mps 716 mmHg 78%
19:00 +19°C° 0.2 mm 2 mps 716 mmHg 81%
20:00 +19°C° 0.2 mm 1 mps 716 mmHg 84%
21:00 +18°C° 0.2 mm 1 mps 716 mmHg 87%
22:00 +16°C° 0 mm 1 mps 716 mmHg 88%
23:00 +16°C° 0 mm 1 mps 716 mmHg 88%

1 Agosto, Domingo

Tiempo Temperatura Precipitaciones Viento Presión Humedad
00:00 +16°C° 0 mm 1 mps 716 mmHg 88%
01:00 +15°C° 0.2 mm 1 mps 716 mmHg 90%
02:00 +15°C° 0.2 mm 1 mps 716 mmHg 91%
03:00 +14°C° 0.2 mm 1 mps 716 mmHg 92%
04:00 +15°C° 0.1 mm 1 mps 716 mmHg 90%
05:00 +15°C° 0.1 mm 1 mps 716 mmHg 87%
06:00 +16°C° 0.1 mm 1 mps 716 mmHg 85%
07:00 +18°C° 0.1 mm 1 mps 716 mmHg 76%
08:00 +20°C° 0.1 mm 1 mps 716 mmHg 68%
09:00 +21°C° 0.1 mm 1 mps 716 mmHg 59%
10:00 +22°C° 0 mm 1 mps 716 mmHg 57%
11:00 +22°C° 0 mm 1 mps 716 mmHg 54%
12:00 +23°C° 0 mm 1 mps 716 mmHg 52%
13:00 +23°C° 0 mm 1 mps 716 mmHg 54%
14:00 +22°C° 0 mm 1 mps 716 mmHg 57%
15:00 +22°C° 0 mm 1 mps 716 mmHg 59%
16:00 +21°C° 0.1 mm 1 mps 716 mmHg 66%
17:00 +21°C° 0.1 mm 1 mps 716 mmHg 72%
18:00 +20°C° 0.1 mm 1 mps 717 mmHg 79%
19:00 +18°C° 0 mm 1 mps 717 mmHg 82%
20:00 +16°C° 0 mm 1 mps 717 mmHg 85%
21:00 +15°C° 0 mm 1 mps 717 mmHg 89%
22:00 +15°C° 0 mm 1 mps 717 mmHg 88%
23:00 +14°C° 0 mm 1 mps 717 mmHg 87%

2 Agosto, Lunes

Tiempo Temperatura Precipitaciones Viento Presión Humedad
00:00 +14°C° 0 mm 1 mps 717 mmHg 86%
01:00 +14°C° 0 mm 1 mps 717 mmHg 86%
02:00 +14°C° 0 mm 1 mps 717 mmHg 86%
03:00 +14°C° 0 mm 1 mps 717 mmHg 86%
04:00 +14°C° 0 mm 1 mps 717 mmHg 84%
05:00 +15°C° 0 mm 1 mps 717 mmHg 83%
06:00 +16°C° 0 mm 1 mps 717 mmHg 81%
07:00 +18°C° 0 mm 1 mps 718 mmHg 74%
08:00 +20°C° 0 mm 1 mps 718 mmHg 67%
09:00 +22°C° 0 mm 1 mps 718 mmHg 60%
10:00 +22°C° 0 mm 1 mps 718 mmHg 56%
11:00 +23°C° 0 mm 1 mps 718 mmHg 52%
12:00 +24°C° 0 mm 2 mps 718 mmHg 49%
13:00 +24°C° 0 mm 2 mps 718 mmHg 49%
14:00 +24°C° 0 mm 2 mps 717 mmHg 49%
15:00 +25°C° 0 mm 2 mps 717 mmHg 49%
16:00 +23°C° 0 mm 1 mps 717 mmHg 56%
17:00 +22°C° 0 mm 1 mps 717 mmHg 64%
18:00 +21°C° 0 mm 1 mps 717 mmHg 71%
19:00 +20°C° 0 mm 1 mps 717 mmHg 72%
20:00 +19°C° 0 mm 1 mps 717 mmHg 72%
21:00 +16°C° 0 mm 1 mps 718 mmHg 72%
22:00 +16°C° 0 mm 1 mps 718 mmHg 72%
23:00 +16°C° 0 mm 1 mps 718 mmHg 72%
Mostrar más

Necesitamos Su Consentimiento

Meteoprog y nuestros Proveedores de Servicios pueden almacenar y acceder a sus datos personales como cookies, identificadores de dispositivo u otras tecnologías similares de su dispositivo y procesar dichos datos para personalizar contenido y anuncios, además de ofrecer funciones de redes sociales y analizar el tráfico.

  • Almacenar y/o acceder a información en su dispositivo

    Se puede almacenar o acceder a cookies, identificadores de dispositivo u otra información de su dispositivo para los fines anteriormente indicados.

  • Anuncios y contenido personalizados, medición de anuncios y contenido, percepciones del público, y desarrollo de productos

    Los anuncios y el contenido pueden personalizarse en base a su perfil. Se pueden añadir más datos para personalizar mejor los anuncios y contenidos. Se puede medir el rendimiento de los anuncios y contenidos. Se puede obtener la percepción sobre el público que ha visto los anuncios y contenidos. Dichos datos pueden usarse para desarrollar o mejorar la experiencia del usuario, sistemas y software.

Al hacer clic en ‘Estoy De Acuerdo’ usted permitirá el uso de las cookies, identificadores de dispositivo, balizas web u otras tecnologías similares indicadas. Su configuración puede cambiarse desde el navegador de su dispositivo.

Para ciertos fines, los intereses legítimos pueden ser considerados por encima del consentimiento. Puede leer más sobre ello en nuestra Política de Privacidad y Cookies.